Latest Coastal Weather Observations for Browse Island

IDW60701

Issued at 2:42 pm WST Wednesday 24 August 2016 (issued every 10 minutes, with the page automatically refreshed every 10 minutes)

About coastal observations | Map of coastal stations | Coastal observations for WA | Marine services | Other Formats
Station Details ID: 200784 Name: BROWSE ISLAND Lat: -14.11 Lon: 123.55 Height: 3.7 m
Data from the previous 72 hours. | See also: Recent months at Browse Island
Date/Time
WST
Temp
°C
Wind Pressure Rain since
9am
mm
Weather Cloud Vis
km
Sea
Height
m
Swell
Dir  Spd
kts
Gust
kts
hPa Trend Height
m
Period
s
Dir
24/02:30pm 26.0 S 10 11 1009.0 - - - - - - - - -
24/02:00pm 25.9 S 11 - 1009.3 - - - - - - - - -
24/01:30pm 26.0 S 11 - 1009.0 - - - - - - - - -
24/01:00pm 26.0 S 9 - 1009.9 - - - - - - - - -
24/12:30pm 26.0 S 8 - 1010.0 - - - - - - - - -
24/12:00pm 26.5 S 6 - 1011.1 - - - - - - - - -
24/11:30am 26.0 S 8 - 1011.0 - - - - - - - - -
24/11:00am 26.0 S 8 - 1011.8 - - - - - - - - -
24/10:30am 26.0 S 9 - 1012.0 - - - - - - - - -
24/10:00am 25.9 S 8 - 1012.2 - - - - - - - - -
24/09:30am 26.0 S 9 - 1012.0 - - - - - - - - -
24/09:00am 25.8 S 7 - 1012.7 - - - - - - - - -
24/08:30am 26.0 S 7 - 1012.0 - - - - - - - - -
24/08:00am 25.6 S 7 - 1012.6 - - - - - - - - -
24/07:30am 26.0 S 9 - 1012.0 - - - - - - - - -
24/07:00am 25.6 S 9 - 1012.1 - - - - - - - - -
24/06:30am 25.0 SSW 11 - 1012.0 - - - - - - - - -
24/06:00am 25.3 SSW 11 - 1011.6 - - - - - - - - -
24/05:30am 25.0 SSW 12 - 1011.0 - - - - - - - - -
24/05:00am 25.6 SSW 11 - 1011.2 - - - - - - - - -
24/04:30am 26.0 SSW 10 - 1011.0 - - - - - - - - -
24/04:00am 25.5 SSW 10 - 1010.7 - - - - - - - - -
24/03:30am 26.0 S 11 - 1010.0 - - - - - - - - -
24/03:00am 25.6 SSW 9 - 1010.4 - - - - - - - - -
24/02:30am 26.0 SSW 11 - 1010.0 - - - - - - - - -
24/02:00am 25.7 SSW 9 - 1010.1 - - - - - - - - -
24/01:30am 26.0 SSW 8 - 1010.0 - - - - - - - - -
24/01:00am 25.6 S 9 - 1010.1 - - - - - - - - -
24/12:30am 26.0 S 9 - 1010.0 - - - - - - - - -
24/12:00am 25.6 S 9 - 1010.3 - - - - - - - - -
 
Date/Time
WST
Temp
°C
Wind Pressure Rain since
9am
mm
Weather Cloud Vis
km
Sea
Height
m
Swell
Dir  Spd
kts
Gust
kts
hPa Trend Height
m
Period
s
Dir
23/11:30pm 26.0 S 8 - 1010.0 - - - - - - - - -
23/11:00pm 25.5 S 9 - 1010.4 - - - - - - - - -
23/10:30pm 26.0 S 10 - 1010.0 - - - - - - - - -
23/10:00pm 25.4 S 9 - 1010.5 - - - - - - - - -
23/09:30pm 26.0 S 10 - 1010.0 - - - - - - - - -
23/09:00pm 25.4 S 10 - 1010.4 - - - - - - - - -
23/08:30pm 25.0 S 10 - 1010.0 - - - - - - - - -
23/08:00pm 25.4 S 11 - 1010.0 - - - - - - - - -
23/07:30pm 25.0 S 11 - 1009.0 - - - - - - - - -
23/07:00pm 25.4 S 13 - 1009.4 - - - - - - - - -
23/06:30pm 26.0 S 13 - 1009.0 - - - - - - - - -
23/06:00pm 25.4 S 13 - 1009.0 - - - - - - - - -
23/05:30pm 25.0 S 13 - 1009.0 - - - - - - - - -
23/05:00pm 25.5 S 13 - 1008.8 - - - - - - - - -
23/04:30pm 26.0 S 13 - 1008.0 - - - - - - - - -
23/04:00pm 25.3 S 13 - 1008.3 - - - - - - - - -
23/03:30pm 25.0 S 14 - 1008.0 - - - - - - - - -
23/03:00pm 25.2 S 14 - 1008.1 - - - - - - - - -
23/02:30pm 25.0 S 15 - 1008.0 - - - - - - - - -
23/02:00pm 25.0 S 15 - 1008.4 - - - - - - - - -
23/01:30pm 26.0 SSW 9 - 1008.0 - - - - - - - - -
23/01:00pm 26.0 SSW 9 - 1009.0 - - - - - - - - -
23/12:30pm 26.0 SSW 10 - 1009.0 - - - - - - - - -
23/12:00pm 25.4 S 10 - 1009.5 - - - - - - - - -
23/11:30am 25.0 S 10 - 1010.0 - - - - - - - - -
23/11:00am 25.2 S 12 - 1010.5 - - - - - - - - -
23/10:30am 26.0 SSW 15 - 1010.0 - - - - - - - - -
23/10:00am 25.2 S 12 - 1011.0 - - - - - - - - -
23/09:30am 26.0 S 10 - 1011.0 - - - - - - - - -
23/09:00am 26.2 SW 10 - 1011.4 - - - - - - - - -
23/08:30am 26.0 SW 12 - 1011.0 - - - - - - - - -
23/08:00am 26.0 SW 9 - 1011.1 - - - - - - - - -
23/07:30am 26.0 SSW 10 - 1011.0 - - - - - - - - -
23/07:00am 25.9 SSW 10 - 1011.0 - - - - - - - - -
23/06:30am 26.0 SW 13 - 1011.0 - - - - - - - - -
23/06:00am 26.0 SW 14 - 1010.7 - - - - - - - - -
23/05:30am 26.0 SSW 12 - 1010.0 - - - - - - - - -
23/05:00am 26.0 SSW 15 - 1009.9 - - - - - - - - -
23/04:30am 26.0 SSW 15 - 1009.0 - - - - - - - - -
23/04:00am 25.8 SSW 15 - 1009.6 - - - - - - - - -
23/03:30am 26.0 SSW 16 - 1009.0 - - - - - - - - -
23/03:00am 25.8 SSW 16 - 1009.3 - - - - - - - - -
23/02:30am 26.0 SSW 17 - 1009.0 - - - - - - - - -
23/02:00am 25.8 SSW 16 - 1009.2 - - - - - - - - -
23/01:30am 26.0 SW 16 - 1009.0 - - - - - - - - -
23/01:00am 26.0 SSW 14 - 1009.3 - - - - - - - - -
23/12:30am 26.0 SW 13 - 1009.0 - - - - - - - - -
23/12:00am 26.0 SSW 11 - 1009.5 - - - - - - - - -
 
Date/Time
WST
Temp
°C
Wind Pressure Rain since
9am
mm
Weather Cloud Vis
km
Sea
Height
m
Swell
Dir  Spd
kts
Gust
kts
hPa Trend Height
m
Period
s
Dir
22/11:30pm 26.0 SSW 12 - 1009.0 - - - - - - - - -
22/11:00pm 26.3 SSW 13 - 1009.9 - - - - - - - - -
22/10:30pm 26.0 SSW 12 - 1010.0 - - - - - - - - -
22/10:00pm 26.4 SSW 12 - 1010.0 - - - - - - - - -
22/09:30pm 26.0 SSW 12 - 1010.0 - - - - - - - - -
22/09:00pm 26.4 SSW 12 - 1010.3 - - - - - - - - -
22/08:30pm 26.0 SSW 13 - 1010.0 - - - - - - - - -
22/08:00pm 26.7 SW 12 - 1010.2 - - - - - - - - -
22/07:30pm 27.0 SSW 11 - 1009.0 - - - - - - - - -
22/07:00pm 26.5 SW 12 - 1009.6 - - - - - - - - -
22/06:30pm 26.0 SW 13 - 1009.0 - - - - - - - - -
22/06:00pm 26.4 SW 13 - 1008.8 - - - - - - - - -
22/05:30pm 27.0 SW 13 - 1008.0 - - - - - - - - -
22/05:00pm 26.7 SW 13 - 1008.2 - - - - - - - - -
22/04:30pm 27.0 SW 15 - 1008.0 - - - - - - - - -
22/04:00pm 26.9 SW 15 - 1007.8 - - - - - - - - -
22/03:30pm 27.0 SW 15 - 1007.0 - - - - - - - - -
22/03:00pm 26.7 SW 15 - 1007.8 - - - - - - - - -
22/02:30pm 27.0 WSW 14 - 1008.0 - - - - - - - - -
22/02:00pm 26.5 WSW 14 - 1008.2 - - - - - - - - -
22/01:30pm 27.0 WSW 14 - 1008.0 - - - - - - - - -
22/01:00pm 26.7 WSW 14 - 1008.8 - - - - - - - - -
22/12:30pm 27.0 W 13 - 1009.0 - - - - - - - - -
22/12:00pm 26.6 WSW 12 - 1009.4 - - - - - - - - -
22/11:30am 27.0 WSW 12 - 1009.0 - - - - - - - - -
22/11:00am 26.8 WSW 11 - 1010.1 - - - - - - - - -
22/10:30am 27.0 W 11 - 1010.0 - - - - - - - - -
22/10:00am 26.8 W 10 - 1010.8 - - - - - - - - -
22/09:30am 27.0 W 10 - 1011.0 - - - - - - - - -
22/09:00am 26.9 W 10 - 1011.0 - - - - - - - - -
22/08:30am 27.0 WNW 9 - 1010.0 - - - - - - - - -
22/08:00am 26.5 WNW 9 - 1010.6 - - - - - - - - -
22/07:30am 26.0 WNW 9 - 1010.0 - - - - - - - - -
22/07:00am 26.2 WNW 8 - 1010.2 - - - - - - - - -
22/06:30am 26.0 WNW 8 - 1010.0 - - - - - - - - -
22/06:00am 26.0 WNW 8 - 1009.7 - - - - - - - - -
22/05:30am 26.0 WNW 8 - 1009.0 - - - - - - - - -
22/05:00am 26.0 WNW 8 - 1009.2 - - - - - - - - -
22/04:30am 26.0 WNW 7 - 1009.0 - - - - - - - - -
22/04:00am 26.0 NW 7 - 1008.9 - - - - - - - - -
22/03:30am 26.0 NW 6 - 1009.0 - - - - - - - - -
22/03:00am 26.0 NW 5 - 1009.0 - - - - - - - - -
22/02:30am 26.0 NNW 5 - 1009.0 - - - - - - - - -
22/02:00am 26.0 NW 5 - 1009.4 - - - - - - - - -
22/01:30am 26.0 WNW 5 - 1009.0 - - - - - - - - -
22/01:00am 26.1 NW 3 - 1009.7 - - - - - - - - -
22/12:30am 26.0 NW 1 - 1010.0 - - - - - - - - -
22/12:00am 25.6 CALM 0 - 1010.3 - - - - - - - - -
 
Date/Time
WST
Temp
°C
Wind Pressure Rain since
9am
mm
Weather Cloud Vis
km
Sea
Height
m
Swell
Dir  Spd
kts
Gust
kts
hPa Trend Height
m
Period
s
Dir
21/11:30pm 26.0 CALM 0 - 1010.0 - - - - - - - - -
21/11:00pm 26.0 CALM 0 - 1010.9 - - - - - - - - -
21/10:30pm 26.0 CALM 0 - 1011.0 - - - - - - - - -
21/10:00pm 25.7 CALM 0 - 1011.1 - - - - - - - - -
21/09:30pm 26.0 CALM 0 - 1011.0 - - - - - - - - -
21/09:00pm 25.8 CALM 0 - 1010.8 - - - - - - - - -
21/08:30pm 26.0 CALM 0 - 1010.0 - - - - - - - - -
21/08:00pm 26.0 CALM 0 - 1010.5 - - - - - - - - -
21/07:30pm 26.0 CALM 0 - 1010.0 - - - - - - - - -
21/07:00pm 26.1 S 1 - 1009.8 - - - - - - - - -
21/06:30pm 26.0 CALM 0 - 1009.0 - - - - - - - - -
21/06:00pm 26.2 CALM 0 - 1009.5 - - - - - - - - -
21/05:30pm 27.0 CALM 0 - 1009.0 - - - - - - - - -
21/05:00pm 26.7 CALM 0 - 1009.0 - - - - - - - - -
21/04:30pm 27.0 CALM 0 - 1008.0 - - - - - - - - -
21/04:00pm 26.9 CALM 0 - 1008.6 - - - - - - - - -
21/03:30pm 27.0 CALM 0 - 1008.0 - - - - - - - - -
21/03:00pm 27.1 E 4 - 1008.6 - - - - - - - - -

Other Formats:

Comma delimited format used in spreadsheet applications
http://www.bom.gov.au/fwo/IDW60701/IDW60701.94103.axf

JavaScript Object Notation format (JSON) in row-major order
http://www.bom.gov.au/fwo/IDW60701/IDW60701.94103.json